FW1924 Weather Reports


Display with metric or nautical units.
time (UTC)temp
F
wind
direction
speed
MPH
gust
MPH
rain 1hr
in
rain 24hr
in
rain mn
in
humidity
%
barometer
mb
20260502151605 56 161 0.0 10.0 0.00 0.00 0.00 45 1015.1
20260502123017 47 186 1.0 4.0 0.00 0.00 0.00 42 1014.9
20260502121609 47 209 0.0 5.0 0.00 0.00 0.00 42 1015.0
20260502120113 47 218 4.0 7.0 0.00 0.00 0.00 41 1015.0
20260502114635 47 216 4.0 8.0 0.00 0.00 0.00 41 1014.9
20260502113051 47 219 3.0 5.0 0.00 0.00 0.00 42 1015.0
20260502111544 48 206 5.0 10.0 0.00 0.00 0.00 45 1015.0
20260502110035 48 217 5.0 9.0 0.00 0.00 0.00 46 1015.0
20260502104526 47 196 5.0 10.0 0.00 0.00 0.00 46 1014.9
20260502103026 47 221 3.0 8.0 0.00 0.00 0.00 44 1015.0
20260502101519 47 190 4.0 7.0 0.00 0.00 0.00 43 1015.0
20260502071505 45 202 4.0 7.0 0.00 0.00 0.00 45 1015.5
20260502070110 45 203 1.0 4.0 0.00 0.00 0.00 46 1015.4
20260502064623 45 236 2.0 3.0 0.00 0.00 0.00 45 1015.4
20260502063104 46 250 0.0 2.0 0.00 0.00 0.00 46 1015.3
20260502061548 46 250 0.0 3.0 0.00 0.00 0.00 44 1015.2
20260502060043 47 251 2.0 4.0 0.00 0.00 0.00 43 1015.0
20260502054527 47 251 3.0 7.0 0.00 0.00 0.00 43 1015.0
20260502053018 48 256 3.0 6.0 0.00 0.00 0.00 42 1014.9
20260502051510 49 256 3.0 6.0 0.00 0.00 0.00 42 1014.9
20260502050004 49 257 3.0 6.0 0.00 0.00 0.00 41 1015.1
20260502044607 50 262 2.0 4.0 0.00 0.00 0.00 39 1015.1
20260502043125 51 268 2.0 6.0 0.00 0.00 0.00 38 1015.0
20260502041559 52 270 3.0 7.0 0.00 0.00 0.00 37 1014.9
20260502040047 52 266 2.0 7.0 0.00 0.00 0.00 36 1014.8
20260502034540 52 274 2.0 6.0 0.00 0.00 0.00 35 1014.6
20260502033032 53 270 2.0 7.0 0.00 0.00 0.00 36 1014.5
20260502031523 53 275 3.0 7.0 0.00 0.00 0.00 34 1014.2
20260502030024 54 277 3.0 8.0 0.00 0.00 0.00 34 1014.0
20260502024517 55 284 3.0 7.0 0.00 0.00 0.00 33 1013.7
20260502023007 56 259 3.0 9.0 0.00 0.00 0.00 32 1013.7
20260502021559 57 271 1.0 8.0 0.00 0.00 0.00 33 1013.6
20260502020051 58 282 3.0 10.0 0.00 0.00 0.00 31 1013.5
20260502014504 59 298 4.0 9.0 0.00 0.00 0.00 30 1013.4
20260502013059 60 313 4.0 12.0 0.00 0.00 0.00 28 1013.4
20260502011556 62 313 4.0 10.0 0.00 0.00 0.00 29 1013.3
20260502010040 63 321 4.0 13.0 0.00 0.00 0.00 27 1013.4
20260502004540 63 325 3.0 12.0 0.00 0.00 0.00 28 1013.3
20260502003036 63 5 6.0 12.0 0.00 0.00 0.00 28 1013.4
20260502001528 64 340 5.0 12.0 0.00 0.00 0.00 27 1013.4
20260502000023 64 296 3.0 12.0 0.00 0.00 0.00 27 1013.6
20260501234514 64 350 7.0 15.0 0.00 0.00 0.00 27 1013.5
20260501233003 64 319 8.0 14.0 0.00 0.00 0.00 26 1013.5
20260501231609 65 321 7.0 15.0 0.00 0.00 0.00 27 1013.7
20260501230148 66 302 7.0 15.0 0.00 0.00 0.00 25 1013.6
20260501224546 67 345 7.0 13.0 0.00 0.00 0.00 24 1013.7
20260501221530 67 328 3.0 12.0 0.00 0.00 0.00 25 1014.0
20260501220037 67 360 5.0 14.0 0.00 0.00 0.00 26 1014.2
20260501214528 67 342 9.0 13.0 0.00 0.00 0.00 25 1014.3
20260501213014 67 5 3.0 11.0 0.00 0.00 0.00 24 1014.3
20260501211505 67 338 5.0 11.0 0.00 0.00 0.00 27 1014.5
20260501210056 66 342 8.0 16.0 0.00 0.00 0.00 27 1014.6
20260501204607 67 343 4.0 13.0 0.00 0.00 0.00 26 1014.6
20260501203049 68 325 2.0 15.0 0.00 0.00 0.00 27 1014.5
20260501201543 67 341 2.0 13.0 0.00 0.00 0.00 35 1014.6
20260501200033 67 44 1.0 14.0 0.00 0.00 0.00 31 1014.9
20260501194526 67 329 2.0 10.0 0.00 0.00 0.00 27 1014.9
20260501193012 66 325 0.0 12.0 0.00 0.00 0.00 26 1015.0
20260501191502 65 308 0.0 10.0 0.00 0.00 0.00 28 1015.4
20260501190056 65 24 1.0 10.0 0.00 0.00 0.00 29 1015.5
20260501184550 66 340 5.0 10.0 0.00 0.00 0.00 29 1015.6
20260501183010 65 5 0.0 13.0 0.00 0.00 0.00 26 1015.9
20260501181601 65 340 5.0 12.0 0.00 0.00 0.00 30 1015.8
20260501180050 64 360 3.0 11.0 0.00 0.00 0.00 28 1016.0
20260501174542 64 33 2.0 12.0 0.00 0.00 0.00 32 1015.9
20260501173026 62 360 3.0 10.0 0.00 0.00 0.00 33 1016.1
20260501171514 62 355 4.0 10.0 0.00 0.00 0.00 30 1016.2
20260501170011 60 53 3.0 10.0 0.00 0.00 0.00 35 1016.1
20260501164559 58 49 0.0 8.0 0.00 0.00 0.00 40 1016.2
20260501163045 56 350 2.0 10.0 0.00 0.00 0.00 37 1016.2
20260501161532 54 5 0.0 5.0 0.00 0.00 0.00 41 1016.2